| time (UTC) | temp F | wind direction | speed MPH | gust MPH | rain 1hr in | rain 24hr in | rain mn in | humidity % | barometer mb |
| 20260505061506 | 42 | 174 | 0.0 | 0.0 | 0.00 | 0.17 | 0.00 | 90 | 1008.9 |
| 20260505060004 | 42 | 196 | 0.0 | 0.0 | 0.00 | 0.19 | 0.00 | 89 | 1008.7 |
| 20260505054502 | 43 | 263 | 0.0 | 0.0 | 0.00 | 0.19 | 0.00 | 88 | 1008.5 |
| 20260505053058 | 44 | 320 | 0.0 | 0.0 | 0.00 | 0.19 | 0.00 | 85 | 1008.4 |
| 20260505051555 | 48 | 219 | 0.0 | 0.0 | 0.00 | 0.19 | 0.00 | 81 | 1007.8 |
| 20260505041550 | 45 | 208 | 0.0 | 0.0 | 0.00 | 0.23 | 0.00 | 85 | 1006.8 |
| 20260505040054 | 45 | 290 | 0.0 | 0.0 | 0.00 | 0.23 | 0.00 | 85 | 1006.7 |
| 20260505034552 | 44 | 209 | 0.0 | 0.0 | 0.00 | 0.26 | 0.00 | 86 | 1006.9 |
| 20260505033045 | 45 | 256 | 0.0 | 0.0 | 0.00 | 0.26 | 0.00 | 82 | 1006.7 |
| 20260505031552 | 50 | 183 | 0.0 | 0.0 | 0.00 | 0.26 | 0.00 | 76 | 1006.3 |
| 20260505030037 | 50 | 189 | 0.0 | 0.0 | 0.00 | 0.26 | 0.00 | 75 | 1005.9 |
| 20260505024546 | 51 | 221 | 0.0 | 0.0 | 0.00 | 0.27 | 0.26 | 74 | 1005.8 |
| 20260505023040 | 51 | 209 | 0.0 | 0.0 | 0.00 | 0.27 | 0.26 | 74 | 1005.6 |
| 20260505021532 | 51 | 250 | 0.0 | 0.0 | 0.00 | 0.27 | 0.26 | 73 | 1005.4 |
| 20260505020031 | 51 | 183 | 0.0 | 0.0 | 0.00 | 0.27 | 0.26 | 74 | 1005.2 |
| 20260505014540 | 51 | 206 | 0.0 | 0.0 | 0.00 | 0.28 | 0.26 | 74 | 1005.1 |
| 20260505013029 | 48 | 216 | 0.0 | 0.0 | 0.00 | 0.28 | 0.26 | 77 | 1005.2 |
| 20260505011529 | 47 | 266 | 0.0 | 0.0 | 0.00 | 0.28 | 0.26 | 77 | 1005.2 |
| 20260505010028 | 47 | 227 | 0.0 | 0.0 | 0.00 | 0.28 | 0.26 | 76 | 1005.1 |
| 20260505004528 | 48 | 222 | 0.0 | 0.0 | 0.00 | 0.32 | 0.26 | 74 | 1005.1 |
| 20260505003026 | 49 | 150 | 0.0 | 0.0 | 0.00 | 0.32 | 0.26 | 74 | 1005.1 |
| 20260505001525 | 50 | 234 | 0.0 | 0.0 | 0.00 | 0.32 | 0.26 | 72 | 1005.0 |
| 20260505000024 | 50 | 161 | 0.0 | 0.0 | 0.00 | 0.32 | 0.26 | 68 | 1004.6 |
| 20260504234521 | 47 | 198 | 0.0 | 0.0 | 0.00 | 0.47 | 0.26 | 72 | 1004.4 |
| 20260504233018 | 47 | 248 | 0.0 | 0.0 | 0.00 | 0.47 | 0.26 | 72 | 1003.8 |
| 20260504231517 | 49 | 214 | 0.0 | 0.0 | 0.00 | 0.47 | 0.26 | 68 | 1003.4 |
| 20260504230015 | 49 | 254 | 0.0 | 0.0 | 0.00 | 0.47 | 0.26 | 68 | 1003.3 |
| 20260504224516 | 49 | 232 | 0.0 | 0.0 | 0.00 | 0.68 | 0.26 | 68 | 1003.1 |
| 20260504223014 | 48 | 252 | 0.0 | 0.0 | 0.00 | 0.68 | 0.26 | 69 | 1003.1 |
| 20260504221512 | 48 | 262 | 0.0 | 0.0 | 0.00 | 0.68 | 0.26 | 72 | 1003.1 |
| 20260504220011 | 48 | 198 | 0.0 | 0.0 | 0.00 | 0.68 | 0.26 | 72 | 1002.9 |
| 20260504214510 | 49 | 227 | 0.0 | 0.0 | 0.00 | 0.85 | 0.26 | 71 | 1002.7 |
| 20260504213011 | 50 | 202 | 0.0 | 0.0 | 0.00 | 0.85 | 0.26 | 69 | 1002.8 |
| 20260504211514 | 52 | 186 | 0.0 | 0.0 | 0.00 | 0.85 | 0.26 | 66 | 1002.7 |
| 20260504210006 | 52 | 168 | 0.0 | 0.0 | 0.00 | 0.98 | 0.26 | 68 | 1002.5 |
| 20260504204510 | 52 | 192 | 0.0 | 0.0 | 0.00 | 0.98 | 0.26 | 68 | 1002.5 |
| 20260504203004 | 52 | 212 | 0.0 | 0.0 | 0.00 | 0.98 | 0.26 | 68 | 1002.3 |
| 20260504201504 | 52 | 273 | 0.0 | 0.0 | 0.00 | 0.98 | 0.26 | 65 | 1002.1 |
| 20260504200002 | 52 | 265 | 0.0 | 0.0 | 0.00 | 1.01 | 0.26 | 64 | 1001.8 |
| 20260504194558 | 52 | 186 | 0.0 | 0.0 | 0.00 | 1.01 | 0.26 | 64 | 1001.5 |
| 20260504193057 | 52 | 225 | 0.0 | 0.0 | 0.00 | 1.01 | 0.26 | 65 | 1001.1 |
| 20260504191600 | 52 | 263 | 0.0 | 0.0 | 0.00 | 1.01 | 0.26 | 66 | 1000.8 |
| 20260504190055 | 52 | 273 | 0.0 | 0.0 | 0.00 | 1.01 | 0.26 | 70 | 1000.8 |
| 20260504184550 | 51 | 148 | 0.0 | 0.0 | 0.00 | 1.03 | 0.26 | 72 | 1000.6 |
| 20260504183046 | 50 | 285 | 0.0 | 0.0 | 0.00 | 1.03 | 0.26 | 73 | 1000.4 |
| 20260504181544 | 50 | 210 | 0.0 | 0.0 | 0.00 | 1.03 | 0.26 | 76 | 1000.3 |
| 20260504180041 | 48 | 175 | 0.0 | 0.0 | 0.00 | 1.03 | 0.26 | 79 | 1000.3 |
| 20260504174539 | 47 | 266 | 0.0 | 0.0 | 0.00 | 1.03 | 0.26 | 81 | 1000.0 |
| 20260504173040 | 46 | 231 | 0.0 | 0.0 | 0.00 | 1.03 | 0.26 | 82 | 999.7 |
| 20260504171532 | 46 | 182 | 0.0 | 0.0 | 0.00 | 1.03 | 0.26 | 83 | 999.5 |
| 20260504081503 | 38 | 200 | 0.0 | 0.0 | 0.00 | 0.92 | 0.15 | 96 | 979.9 |